SHI7316 OIIE-OOMS

Flight info

Callsign SHI7316
Flight time 2h 5m
Altitude 37000
Route OBRI2L OBRIX M715 PURKI W32 BND/N0470F380 M324 PATAT/N0476F340 L519 EGPEP/N0474F350 L313 TARDI/N0476F330 N629 MUSUK T511 MCT
Aircraft B736/M-SDE2E3FGHIJ4J5M1RWXYZ/LB1D1

Departure

Time 2026-05-06 02:12
Airport Imam Khomeini International Airport (OIIE)

Arrival

Time 2026-05-06 04:18
Airport Muscat International Airport (OOMS)
Time Latitude Longitude Altitude Speed Heading
2026-05-06 01:51 35.41351 51.14981 3317 ft 0 kts 20°
2026-05-06 01:58 35.41348 51.14980 3317 ft 2 kts 20°
2026-05-06 01:58 35.41334 51.14973 3317 ft 2 kts 20°
2026-05-06 01:58 35.41320 51.14967 3317 ft 2 kts 20°
2026-05-06 01:59 35.41309 51.14962 3317 ft 0 kts 20°
2026-05-06 01:59 35.41296 51.14959 3317 ft 2 kts 356°
2026-05-06 01:59 35.41282 51.14963 3317 ft 2 kts 330°
2026-05-06 01:59 35.41271 51.14975 3317 ft 2 kts 304°
2026-05-06 02:00 35.41267 51.14984 3317 ft 1 kts 288°
2026-05-06 02:00 35.41265 51.14991 3317 ft 0 kts 288°
2026-05-06 02:01 35.41266 51.14987 3317 ft 1 kts 288°
2026-05-06 02:02 35.41270 51.14971 3317 ft 2 kts 289°
2026-05-06 02:02 35.41278 51.14947 3317 ft 3 kts 290°
2026-05-06 02:02 35.41286 51.14919 3317 ft 3 kts 289°
2026-05-06 02:02 35.41295 51.14888 3317 ft 3 kts 288°
2026-05-06 02:03 35.41304 51.14855 3317 ft 4 kts 288°
2026-05-06 02:03 35.41313 51.14822 3317 ft 4 kts 290°
2026-05-06 02:03 35.41323 51.14788 3317 ft 4 kts 290°
2026-05-06 02:03 35.41332 51.14755 3317 ft 4 kts 288°
2026-05-06 02:04 35.41342 51.14720 3317 ft 4 kts 293°
2026-05-06 02:04 35.41363 51.14697 3317 ft 4 kts 339°
2026-05-06 02:04 35.41392 51.14699 3317 ft 4 kts 18°
2026-05-06 02:04 35.41419 51.14711 3317 ft 4 kts 21°
2026-05-06 02:05 35.41447 51.14726 3317 ft 4 kts 23°
2026-05-06 02:05 35.41475 51.14737 3317 ft 4 kts 17°
2026-05-06 02:05 35.41504 51.14746 3317 ft 4 kts
2026-05-06 02:05 35.41531 51.14733 3317 ft 4 kts 319°
2026-05-06 02:06 35.41543 51.14700 3317 ft 4 kts 287°
2026-05-06 02:06 35.41555 51.14656 3317 ft 6 kts 290°
2026-05-06 02:06 35.41570 51.14607 3317 ft 5 kts 289°
2026-05-06 02:06 35.41585 51.14556 3317 ft 7 kts 288°
2026-05-06 02:07 35.41603 51.14491 3318 ft 8 kts 289°
2026-05-06 02:07 35.41620 51.14427 3318 ft 7 kts 288°
2026-05-06 02:07 35.41645 51.14334 3318 ft 16 kts 288°
2026-05-06 02:07 35.41694 51.14162 3318 ft 22 kts 288°
2026-05-06 02:08 35.41745 51.13984 3318 ft 22 kts 291°
2026-05-06 02:08 35.41792 51.13810 3318 ft 21 kts 288°
2026-05-06 02:08 35.41837 51.13640 3318 ft 20 kts 288°
2026-05-06 02:08 35.41882 51.13485 3318 ft 16 kts 295°
2026-05-06 02:09 35.41976 51.13433 3319 ft 15 kts 352°
2026-05-06 02:09 35.42042 51.13324 3319 ft 20 kts 288°
2026-05-06 02:09 35.42091 51.13147 3319 ft 22 kts 289°
2026-05-06 02:09 35.42141 51.12968 3319 ft 21 kts 288°
2026-05-06 02:10 35.42189 51.12793 3319 ft 21 kts 288°
2026-05-06 02:10 35.42236 51.12626 3319 ft 20 kts 288°
2026-05-06 02:10 35.42281 51.12461 3319 ft 19 kts 288°
2026-05-06 02:10 35.42331 51.12316 3320 ft 16 kts 321°
2026-05-06 02:11 35.42429 51.12328 3320 ft 14 kts 20°
2026-05-06 02:11 35.42487 51.12386 3319 ft 8 kts 101°
2026-05-06 02:11 35.42482 51.12405 3319 ft 0 kts 108°
2026-05-06 02:11 35.42477 51.12425 3319 ft 16 kts 109°
2026-05-06 02:12 35.42350 51.12880 3319 ft 95 kts 108°
2026-05-06 02:12 35.42065 51.13916 3346 ft 157 kts 108°
2026-05-06 02:12 35.41709 51.15273 3806 ft 177 kts 107°
2026-05-06 02:12 35.41379 51.16808 4386 ft 195 kts 104°
2026-05-06 02:13 35.41066 51.18498 4929 ft 215 kts 105°
2026-05-06 02:13 35.40443 51.20192 5418 ft 225 kts 127°
2026-05-06 02:13 35.39273 51.21547 5879 ft 238 kts 146°
2026-05-06 02:13 35.37913 51.22784 6443 ft 250 kts 141°
2026-05-06 02:14 35.36664 51.24298 7246 ft 255 kts 135°
2026-05-06 02:14 35.35478 51.26010 7734 ft 272 kts 132°
2026-05-06 02:14 35.34282 51.27841 8289 ft 285 kts 132°
2026-05-06 02:14 35.33032 51.29766 9082 ft 288 kts 133°
2026-05-06 02:15 35.31788 51.31659 9771 ft 293 kts 134°
2026-05-06 02:15 35.30471 51.33642 10384 ft 303 kts 135°
2026-05-06 02:15 35.29102 51.35687 10789 ft 319 kts 135°
2026-05-06 02:15 35.27661 51.37834 11223 ft 336 kts 135°
2026-05-06 02:16 35.26160 51.40075 11664 ft 351 kts 135°
2026-05-06 02:16 35.24577 51.42444 12105 ft 366 kts 135°
2026-05-06 02:16 35.22918 51.44923 12540 ft 381 kts 135°
2026-05-06 02:16 35.21260 51.47412 13325 ft 385 kts 135°
2026-05-06 02:17 35.19550 51.49980 14070 ft 391 kts 135°
2026-05-06 02:17 35.17822 51.52567 14731 ft 398 kts 135°
2026-05-06 02:17 35.16047 51.55224 15581 ft 402 kts 135°
2026-05-06 02:17 35.14276 51.57870 16278 ft 408 kts 135°
2026-05-06 02:18 35.12481 51.60549 17079 ft 412 kts 135°
2026-05-06 02:18 35.10650 51.63279 17787 ft 417 kts 135°
2026-05-06 02:18 35.08802 51.66031 18545 ft 421 kts 136°
2026-05-06 02:18 35.06947 51.68793 19277 ft 425 kts 136°
2026-05-06 02:19 35.05038 51.71630 20029 ft 429 kts 136°
2026-05-06 02:19 35.03153 51.74427 20712 ft 433 kts 136°
2026-05-06 02:19 35.01217 51.77299 21408 ft 437 kts 136°
2026-05-06 02:19 34.99271 51.80186 22086 ft 441 kts 136°
2026-05-06 02:20 34.95353 51.85986 23270 ft 451 kts 136°
2026-05-06 02:20 34.93369 51.88919 23965 ft 453 kts 136°
2026-05-06 02:20 34.91348 51.91905 24472 ft 460 kts 136°
2026-05-06 02:21 34.89286 51.94948 25095 ft 464 kts 136°
2026-05-06 02:21 34.87214 51.98006 25681 ft 468 kts 136°
2026-05-06 02:21 34.85152 52.01047 26197 ft 473 kts 136°
2026-05-06 02:21 34.83036 52.04166 26741 ft 477 kts 136°
2026-05-06 02:22 34.80918 52.07287 27311 ft 481 kts 136°
2026-05-06 02:22 34.78784 52.10426 27823 ft 485 kts 136°
2026-05-06 02:22 34.76600 52.13586 28231 ft 490 kts 137°
2026-05-06 02:22 34.74312 52.16581 28787 ft 489 kts 141°
2026-05-06 02:23 34.71882 52.19440 29439 ft 485 kts 144°
2026-05-06 02:23 34.69391 52.22206 30219 ft 481 kts 145°
2026-05-06 02:23 34.66899 52.24904 30916 ft 478 kts 146°
2026-05-06 02:23 34.64404 52.27583 31500 ft 477 kts 146°
2026-05-06 02:24 34.61901 52.30270 32040 ft 477 kts 146°
2026-05-06 02:24 34.59412 52.32951 32500 ft 479 kts 146°
2026-05-06 02:24 34.56901 52.35667 32996 ft 480 kts 146°
2026-05-06 02:24 34.54448 52.38334 33559 ft 479 kts 146°
2026-05-06 02:25 34.51967 52.41040 34144 ft 477 kts 146°
2026-05-06 02:25 34.49494 52.43743 34604 ft 477 kts 146°
2026-05-06 02:25 34.47058 52.46406 35019 ft 479 kts 146°
2026-05-06 02:25 34.44592 52.49100 35428 ft 479 kts 147°
2026-05-06 02:26 34.42113 52.51810 35897 ft 479 kts 147°
2026-05-06 02:26 34.39640 52.54514 36312 ft 479 kts 147°
2026-05-06 02:26 34.37156 52.57225 36533 ft 484 kts 147°
2026-05-06 02:26 34.34655 52.59951 36904 ft 484 kts 147°
2026-05-06 02:27 34.32147 52.62685 37011 ft 489 kts 147°
2026-05-06 02:27 34.27139 52.68149 37004 ft 482 kts 148°
2026-05-06 02:28 34.22150 52.73591 36996 ft 472 kts 148°
2026-05-06 02:28 34.17300 52.78870 37010 ft 477 kts 148°
2026-05-06 02:29 34.12319 52.84243 37021 ft 484 kts 148°
2026-05-06 02:29 34.07272 52.89699 37028 ft 485 kts 148°
2026-05-06 02:30 34.02261 52.95119 37044 ft 486 kts 148°
2026-05-06 02:30 33.97235 53.00544 37032 ft 486 kts 148°
2026-05-06 02:31 33.92188 53.05983 37049 ft 485 kts 148°
2026-05-06 02:31 33.87168 53.11387 37050 ft 486 kts 148°
2026-05-06 02:32 33.82133 53.16794 37054 ft 486 kts 147°
2026-05-06 02:32 33.77059 53.22223 37057 ft 490 kts 148°
2026-05-06 02:33 33.72017 53.27627 37068 ft 486 kts 147°
2026-05-06 02:33 33.70325 53.29433 37065 ft 490 kts 147°
2026-05-06 02:34 33.61818 53.38506 37082 ft 489 kts 147°
2026-05-06 02:34 33.56764 53.43892 37094 ft 488 kts 147°
2026-05-06 02:35 33.51634 53.49332 37121 ft 492 kts 147°
2026-05-06 02:35 33.46520 53.54731 37134 ft 490 kts 148°
2026-05-06 02:36 33.41406 53.60128 37104 ft 494 kts 147°
2026-05-06 02:36 33.36603 53.66081 37117 ft 502 kts 138°
2026-05-06 02:37 33.32379 53.72729 37143 ft 510 kts 133°
2026-05-06 02:37 33.28314 53.79671 37150 ft 512 kts 132°
2026-05-06 02:38 33.24246 53.86650 37131 ft 509 kts 133°
2026-05-06 02:38 33.19670 53.92931 37113 ft 492 kts 152°
2026-05-06 02:38 33.16797 53.95001 37137 ft 471 kts 166°
2026-05-06 02:39 33.13793 53.96280 37129 ft 455 kts 175°
2026-05-06 02:39 33.07666 53.97992 37115 ft 451 kts 179°
2026-05-06 02:40 33.01494 53.99507 37123 ft 451 kts 179°
2026-05-06 02:40 32.95395 54.00996 37124 ft 451 kts 179°
2026-05-06 02:41 32.89197 54.02510 37108 ft 454 kts 179°
2026-05-06 02:41 32.83060 54.04046 37112 ft 450 kts 178°
2026-05-06 02:42 32.76938 54.05654 37118 ft 455 kts 178°
2026-05-06 02:42 32.70721 54.07310 37107 ft 455 kts 178°
2026-05-06 02:43 32.64578 54.08953 37112 ft 456 kts 178°
2026-05-06 02:43 32.58393 54.10600 37108 ft 452 kts 178°
2026-05-06 02:44 32.52240 54.12225 37115 ft 457 kts 178°
2026-05-06 02:44 32.46061 54.13854 37123 ft 458 kts 178°
2026-05-06 02:45 32.39847 54.15492 37124 ft 456 kts 178°
2026-05-06 02:45 32.33658 54.17133 37143 ft 457 kts 178°
2026-05-06 02:46 32.27493 54.18794 37150 ft 455 kts 178°
2026-05-06 02:46 32.21232 54.20466 37162 ft 459 kts 178°
2026-05-06 02:47 32.14968 54.22144 37151 ft 457 kts 178°
2026-05-06 02:47 32.08717 54.23813 37135 ft 458 kts 178°
2026-05-06 02:48 32.02431 54.25489 37129 ft 458 kts 178°
2026-05-06 02:48 31.96157 54.27161 37099 ft 458 kts 178°
2026-05-06 02:49 31.89953 54.29163 37110 ft 467 kts 171°
2026-05-06 02:49 31.83829 54.32259 37116 ft 478 kts 164°
2026-05-06 02:50 31.77866 54.35789 37134 ft 480 kts 162°
2026-05-06 02:50 31.71940 54.39368 37192 ft 478 kts 163°
2026-05-06 02:51 31.65961 54.42926 37220 ft 481 kts 163°
2026-05-06 02:51 31.59994 54.46439 37250 ft 479 kts 163°
2026-05-06 02:52 31.53981 54.49947 37249 ft 480 kts 163°
2026-05-06 02:52 31.47992 54.53432 37263 ft 479 kts 163°
2026-05-06 02:53 31.42050 54.56905 37293 ft 478 kts 163°
2026-05-06 02:53 31.36077 54.60469 37315 ft 481 kts 162°
2026-05-06 02:54 31.30095 54.64070 37339 ft 478 kts 162°
2026-05-06 02:54 31.24146 54.67638 37358 ft 479 kts 163°
2026-05-06 02:55 31.18228 54.71178 37352 ft 478 kts 163°
2026-05-06 02:55 31.12283 54.74719 37340 ft 479 kts 163°
2026-05-06 02:56 31.06311 54.78273 37331 ft 478 kts 163°
2026-05-06 02:56 31.00373 54.81797 37311 ft 480 kts 163°
2026-05-06 02:57 30.94381 54.85355 37322 ft 478 kts 163°
2026-05-06 02:57 30.88407 54.88892 37344 ft 480 kts 163°
2026-05-06 02:58 30.82428 54.92425 37339 ft 481 kts 163°
2026-05-06 02:58 30.76464 54.95947 37354 ft 479 kts 163°
2026-05-06 02:59 30.70501 54.99454 37356 ft 481 kts 163°
2026-05-06 02:59 30.64558 55.02938 37381 ft 480 kts 163°
2026-05-06 03:00 30.58567 55.06442 37397 ft 480 kts 163°
2026-05-06 03:00 30.52629 55.09914 37414 ft 482 kts 163°
2026-05-06 03:01 30.46635 55.13411 37432 ft 482 kts 163°
2026-05-06 03:01 30.40676 55.16887 37427 ft 480 kts 163°
2026-05-06 03:02 30.34710 55.20362 37431 ft 482 kts 163°
2026-05-06 03:02 30.28752 55.23822 37441 ft 483 kts 163°
2026-05-06 03:03 30.22751 55.27309 37452 ft 480 kts 163°
2026-05-06 03:03 30.16784 55.30773 37438 ft 482 kts 163°
2026-05-06 03:04 30.10784 55.34246 37434 ft 482 kts 163°
2026-05-06 03:04 30.04843 55.37683 37430 ft 480 kts 163°
2026-05-06 03:05 29.98859 55.41137 37418 ft 482 kts 163°
2026-05-06 03:05 29.92874 55.44595 37419 ft 479 kts 162°
2026-05-06 03:06 29.86904 55.48035 37406 ft 482 kts 162°
2026-05-06 03:06 29.80885 55.51500 37417 ft 482 kts 162°
2026-05-06 03:07 29.74918 55.54930 37414 ft 482 kts 163°
2026-05-06 03:07 29.68928 55.58370 37412 ft 481 kts 162°
2026-05-06 03:08 29.62914 55.61822 37417 ft 482 kts 162°
2026-05-06 03:08 29.56924 55.65185 37421 ft 477 kts 165°
2026-05-06 03:09 29.50780 55.67747 37404 ft 468 kts 173°
2026-05-06 03:09 29.44516 55.69678 37398 ft 463 kts 175°
2026-05-06 03:10 29.38285 55.71475 37403 ft 464 kts 175°
2026-05-06 03:10 29.32033 55.73304 37395 ft 465 kts 175°
2026-05-06 03:11 29.25758 55.75179 37386 ft 464 kts 175°
2026-05-06 03:11 29.19525 55.77058 37379 ft 465 kts 175°
2026-05-06 03:12 29.13235 55.78967 37388 ft 465 kts 174°
2026-05-06 03:12 29.06990 55.80863 37386 ft 465 kts 174°
2026-05-06 03:13 29.00695 55.82778 37386 ft 464 kts 174°
2026-05-06 03:13 28.94425 55.84678 37374 ft 465 kts 174°
2026-05-06 03:14 28.88219 55.86561 37380 ft 465 kts 174°
2026-05-06 03:14 28.81931 55.88462 37359 ft 464 kts 174°
2026-05-06 03:15 28.75663 55.90356 37369 ft 466 kts 174°
2026-05-06 03:15 28.69410 55.92240 37352 ft 465 kts 174°
2026-05-06 03:16 28.63122 55.94134 37319 ft 466 kts 174°
2026-05-06 03:16 28.56845 55.96023 37287 ft 466 kts 174°
2026-05-06 03:17 28.50522 55.97921 37249 ft 467 kts 174°
2026-05-06 03:17 28.44253 55.99803 37216 ft 465 kts 174°
2026-05-06 03:18 28.37990 56.01680 37206 ft 466 kts 174°
2026-05-06 03:18 28.31725 56.03554 37196 ft 468 kts 174°
2026-05-06 03:19 28.25432 56.05436 37176 ft 466 kts 173°
2026-05-06 03:19 28.19110 56.07324 37168 ft 468 kts 173°
2026-05-06 03:20 28.09660 56.10135 37173 ft 468 kts 173°
2026-05-06 03:20 28.03362 56.11998 37172 ft 467 kts 173°
2026-05-06 03:21 27.97053 56.13863 37153 ft 467 kts 173°
2026-05-06 03:21 27.90766 56.15718 37130 ft 467 kts 173°
2026-05-06 03:22 27.84502 56.17565 37117 ft 467 kts 173°
2026-05-06 03:22 27.78198 56.19421 37085 ft 468 kts 173°
2026-05-06 03:23 27.71907 56.21274 37066 ft 467 kts 173°
2026-05-06 03:23 27.65594 56.23128 37036 ft 467 kts 173°
2026-05-06 03:24 27.59312 56.24975 36997 ft 466 kts 173°
2026-05-06 03:24 27.53056 56.26808 36946 ft 468 kts 173°
2026-05-06 03:25 27.46777 56.28647 36904 ft 466 kts 173°
2026-05-06 03:25 27.40492 56.30485 36877 ft 467 kts 173°
2026-05-06 03:26 27.34191 56.32325 36877 ft 467 kts 173°
2026-05-06 03:26 27.27908 56.34149 36848 ft 465 kts 174°
2026-05-06 03:27 27.21573 56.35060 36822 ft 447 kts 190°
2026-05-06 03:27 27.18538 56.34529 36834 ft 437 kts 201°
2026-05-06 03:27 27.15648 56.33537 36835 ft 433 kts 206°
2026-05-06 03:28 27.10025 56.31172 36825 ft 431 kts 208°
2026-05-06 03:28 27.04413 56.28678 36808 ft 432 kts 208°
2026-05-06 03:29 26.98853 56.26218 36806 ft 431 kts 207°
2026-05-06 03:29 26.93215 56.23756 36808 ft 432 kts 207°
2026-05-06 03:30 26.87616 56.21330 36803 ft 432 kts 207°
2026-05-06 03:30 26.82020 56.18914 36803 ft 432 kts 207°
2026-05-06 03:31 26.76411 56.16500 36803 ft 433 kts 207°
2026-05-06 03:31 26.70704 56.14252 36802 ft 436 kts 202°
2026-05-06 03:32 26.64801 56.12494 36803 ft 438 kts 200°
2026-05-06 03:32 26.58875 56.10847 36802 ft 438 kts 200°
2026-05-06 03:33 26.52979 56.09183 36803 ft 438 kts 200°
2026-05-06 03:33 26.47045 56.07477 36800 ft 439 kts 201°
2026-05-06 03:34 26.41120 56.05760 36801 ft 438 kts 200°
2026-05-06 03:34 26.35231 56.04046 36803 ft 438 kts 200°
2026-05-06 03:35 26.29335 56.02330 36804 ft 438 kts 200°
2026-05-06 03:35 26.23348 56.00940 36803 ft 442 kts 194°
2026-05-06 03:36 26.17189 56.00062 36803 ft 445 kts 192°
2026-05-06 03:36 26.11053 55.99283 36803 ft 444 kts 192°
2026-05-06 03:37 26.04898 55.98472 36802 ft 444 kts 193°
2026-05-06 03:37 25.98736 55.97657 36801 ft 445 kts 191°
2026-05-06 03:38 25.92518 55.97491 36801 ft 452 kts 184°
2026-05-06 03:38 25.86214 55.97924 36803 ft 454 kts 181°
2026-05-06 03:39 25.79918 55.98489 36806 ft 454 kts 181°
2026-05-06 03:39 25.73592 55.99046 36807 ft 455 kts 181°
2026-05-06 03:40 25.67284 55.99574 36806 ft 453 kts 181°
2026-05-06 03:40 25.60967 56.00085 36809 ft 455 kts 181°
2026-05-06 03:41 25.54642 56.00589 36811 ft 455 kts 181°
2026-05-06 03:41 25.48326 56.01089 36816 ft 455 kts 181°
2026-05-06 03:42 25.41968 56.01591 36826 ft 455 kts 181°
2026-05-06 03:42 25.35622 56.02092 36837 ft 456 kts 181°
2026-05-06 03:43 25.29273 56.02592 36845 ft 456 kts 181°
2026-05-06 03:43 25.22917 56.03092 36854 ft 456 kts 181°
2026-05-06 03:44 25.16559 56.03802 36861 ft 459 kts 178°
2026-05-06 03:44 25.10213 56.04784 36868 ft 458 kts 177°
2026-05-06 03:45 25.03841 56.05797 36873 ft 461 kts 177°
2026-05-06 03:45 24.97462 56.06782 36882 ft 459 kts 177°
2026-05-06 03:46 24.91121 56.07729 36888 ft 459 kts 177°
2026-05-06 03:46 24.84750 56.08655 36904 ft 460 kts 178°
2026-05-06 03:47 24.78358 56.09580 36917 ft 460 kts 177°
2026-05-06 03:47 24.72011 56.10496 36920 ft 459 kts 177°
2026-05-06 03:48 24.65631 56.11541 36931 ft 463 kts 172°
2026-05-06 03:48 24.59622 56.14271 36946 ft 477 kts 150°
2026-05-06 03:49 24.54642 56.19192 36968 ft 484 kts 137°
2026-05-06 03:49 24.50039 56.24621 36998 ft 485 kts 135°
2026-05-06 03:50 24.45563 56.30159 36984 ft 486 kts 134°
2026-05-06 03:50 24.41121 56.35767 36940 ft 485 kts 134°
2026-05-06 03:51 24.36706 56.41373 36895 ft 485 kts 134°
2026-05-06 03:51 24.32304 56.46964 36867 ft 485 kts 134°
2026-05-06 03:52 24.27960 56.52589 36841 ft 486 kts 131°
2026-05-06 03:52 24.23920 56.58571 36835 ft 486 kts 128°
2026-05-06 03:53 24.20021 56.64643 36832 ft 487 kts 127°
2026-05-06 03:53 24.16108 56.70691 36828 ft 486 kts 128°
2026-05-06 03:54 24.12156 56.76701 36823 ft 486 kts 129°
2026-05-06 03:54 24.08188 56.82678 36822 ft 485 kts 129°
2026-05-06 03:55 24.04222 56.88626 36714 ft 483 kts 129°
2026-05-06 03:55 24.02254 56.91573 36336 ft 476 kts 129°
2026-05-06 03:55 24.00305 56.94489 35833 ft 470 kts 129°
2026-05-06 03:56 23.98387 56.97354 35183 ft 468 kts 129°
2026-05-06 03:56 23.96461 57.00228 34448 ft 467 kts 129°
2026-05-06 03:56 23.94539 57.03092 33665 ft 467 kts 129°
2026-05-06 03:56 23.92631 57.05939 32857 ft 468 kts 128°
2026-05-06 03:57 23.90832 57.08888 32099 ft 471 kts 123°
2026-05-06 03:57 23.89257 57.12048 31280 ft 474 kts 117°
2026-05-06 03:57 23.87955 57.15327 30424 ft 478 kts 112°
2026-05-06 03:57 23.86800 57.18749 29521 ft 481 kts 109°
2026-05-06 03:58 23.85746 57.22186 28574 ft 484 kts 108°
2026-05-06 03:58 23.84718 57.25704 27564 ft 487 kts 107°
2026-05-06 03:58 23.83712 57.29213 26580 ft 489 kts 107°
2026-05-06 03:58 23.82714 57.32738 25876 ft 483 kts 105°
2026-05-06 03:59 23.82046 57.36317 25188 ft 476 kts 96°
2026-05-06 03:59 23.81894 57.39845 24882 ft 466 kts 88°
2026-05-06 03:59 23.82071 57.43376 24827 ft 469 kts 83°
2026-05-06 03:59 23.82539 57.46930 24814 ft 471 kts 78°
2026-05-06 04:00 23.83179 57.50469 24813 ft 470 kts 76°
2026-05-06 04:00 23.83892 57.53951 24814 ft 469 kts 76°
2026-05-06 04:00 23.84628 57.57402 24802 ft 471 kts 75°
2026-05-06 04:00 23.85379 57.60920 24802 ft 470 kts 75°
2026-05-06 04:01 23.86102 57.64364 24670 ft 467 kts 76°
2026-05-06 04:01 23.86807 57.67800 24033 ft 462 kts 76°
2026-05-06 04:01 23.87450 57.71241 23208 ft 461 kts 78°
2026-05-06 04:01 23.87848 57.74692 22448 ft 458 kts 86°
2026-05-06 04:02 23.87788 57.78148 21723 ft 456 kts 93°
2026-05-06 04:02 23.87435 57.81547 20998 ft 452 kts 97°
2026-05-06 04:02 23.86938 57.84918 20278 ft 448 kts 99°
2026-05-06 04:02 23.86381 57.88247 19553 ft 444 kts 99°
2026-05-06 04:03 23.85996 57.90463 19066 ft 441 kts 99°
2026-05-06 04:03 23.85235 57.94813 18097 ft 435 kts 99°
2026-05-06 04:03 23.84673 57.98032 17343 ft 430 kts 99°
2026-05-06 04:03 23.84121 58.01241 16645 ft 424 kts 99°
2026-05-06 04:04 23.83593 58.04371 15941 ft 419 kts 98°
2026-05-06 04:04 23.83079 58.07468 15239 ft 414 kts 98°
2026-05-06 04:04 23.82578 58.10525 14537 ft 408 kts 98°
2026-05-06 04:04 23.82087 58.13543 13856 ft 402 kts 98°
2026-05-06 04:05 23.81601 58.16541 13270 ft 394 kts 98°
2026-05-06 04:05 23.81132 58.19434 12650 ft 388 kts 98°
2026-05-06 04:05 23.80668 58.22299 12003 ft 382 kts 98°
2026-05-06 04:05 23.80209 58.25128 11377 ft 375 kts 98°
2026-05-06 04:06 23.79764 58.27860 10926 ft 355 kts 98°
2026-05-06 04:06 23.79344 58.30428 10729 ft 332 kts 98°
2026-05-06 04:06 23.78948 58.32841 10593 ft 308 kts 98°
2026-05-06 04:06 23.78584 58.35067 10471 ft 292 kts 98°
2026-05-06 04:07 23.78223 58.37308 10347 ft 307 kts 98°
2026-05-06 04:07 23.77854 58.39583 10218 ft 297 kts 98°
2026-05-06 04:07 23.77497 58.41758 9985 ft 289 kts 98°
2026-05-06 04:07 23.77143 58.43920 9624 ft 287 kts 98°
2026-05-06 04:08 23.76793 58.46057 9228 ft 286 kts 98°
2026-05-06 04:08 23.76443 58.48195 8852 ft 283 kts 98°
2026-05-06 04:08 23.76098 58.50296 8516 ft 279 kts 98°
2026-05-06 04:08 23.75757 58.52363 8185 ft 276 kts 98°
2026-05-06 04:09 23.75421 58.54404 7851 ft 273 kts 99°
2026-05-06 04:09 23.75090 58.56417 7510 ft 271 kts 99°
2026-05-06 04:09 23.74756 58.58439 7165 ft 268 kts 99°
2026-05-06 04:09 23.74348 58.60411 6844 ft 269 kts 107°
2026-05-06 04:10 23.73435 58.62193 6529 ft 271 kts 134°
2026-05-06 04:10 23.71865 58.63282 6322 ft 273 kts 160°
2026-05-06 04:10 23.69996 58.63665 6068 ft 268 kts 174°
2026-05-06 04:10 23.68158 58.63825 5853 ft 260 kts 175°
2026-05-06 04:11 23.66393 58.63977 5655 ft 253 kts 175°
2026-05-06 04:11 23.64652 58.63969 5454 ft 246 kts 187°
2026-05-06 04:11 23.63103 58.63285 5276 ft 238 kts 220°
2026-05-06 04:11 23.62166 58.61856 5100 ft 232 kts 249°
2026-05-06 04:12 23.61817 58.60181 4925 ft 226 kts 263°
2026-05-06 04:12 23.61674 58.58488 4739 ft 221 kts 265°
2026-05-06 04:12 23.61556 58.56824 4572 ft 216 kts 264°
2026-05-06 04:12 23.61441 58.55228 4399 ft 210 kts 265°
2026-05-06 04:13 23.61347 58.53648 4100 ft 210 kts 265°
2026-05-06 04:13 23.61239 58.52048 3800 ft 209 kts 264°
2026-05-06 04:13 23.61112 58.50470 3531 ft 207 kts 264°
2026-05-06 04:13 23.60978 58.48916 3257 ft 206 kts 264°
2026-05-06 04:14 23.60847 58.47386 2988 ft 202 kts 264°
2026-05-06 04:14 23.60717 58.45867 2714 ft 196 kts 264°
2026-05-06 04:14 23.60593 58.44416 2463 ft 190 kts 264°
2026-05-06 04:14 23.60471 58.42987 2223 ft 186 kts 264°
2026-05-06 04:15 23.60367 58.41603 1945 ft 184 kts 264°
2026-05-06 04:15 23.60257 58.40263 1705 ft 171 kts 264°
2026-05-06 04:15 23.60157 58.39018 1498 ft 157 kts 264°
2026-05-06 04:15 23.60063 58.37853 1310 ft 151 kts 264°
2026-05-06 04:16 23.59971 58.36716 1092 ft 146 kts 265°
2026-05-06 04:16 23.59913 58.35995 981 ft 139 kts 265°
2026-05-06 04:16 23.59801 58.34597 742 ft 138 kts 265°
2026-05-06 04:16 23.59718 58.33562 586 ft 136 kts 266°
2026-05-06 04:17 23.59646 58.32525 412 ft 134 kts 267°
2026-05-06 04:17 23.59555 58.31533 227 ft 131 kts 265°
2026-05-06 04:17 23.59475 58.30557 70 ft 127 kts 267°
2026-05-06 04:17 23.59406 58.29655 38 ft 101 kts 265°
2026-05-06 04:18 23.59362 58.29095 38 ft 51 kts 264°
2026-05-06 04:18 23.59354 58.28764 38 ft 40 kts 281°
2026-05-06 04:18 23.59445 58.28516 38 ft 23 kts 296°
2026-05-06 04:18 23.59518 58.28434 38 ft 13 kts
2026-05-06 04:19 23.59589 58.28435 38 ft 8 kts 21°
2026-05-06 04:19 23.59613 58.28490 38 ft 8 kts 77°
2026-05-06 04:19 23.59656 58.28517 38 ft 7 kts 356°
2026-05-06 04:19 23.59709 58.28513 38 ft 7 kts 355°
2026-05-06 04:20 23.59755 58.28529 38 ft 7 kts 50°
2026-05-06 04:20 23.59761 58.28579 38 ft 6 kts 92°
2026-05-06 04:20 23.59761 58.28614 38 ft 2 kts 87°
2026-05-06 04:20 23.59761 58.28622 38 ft 1 kts 87°
2026-05-06 04:21 23.59761 58.28625 38 ft 0 kts 85°